Waarnemingen

Advertentie
Mijn weer
List/Sylt, Duitsland (10020): temperatuur & dauwpunt: 13.11.2017 18:00:00 - 19.11.2017 18:00:00 (CET)List/Sylt, Duitsland (10020): temperatuur 5cm & temperatuur -5cm: 13.11.2017 18:00:00 - 19.11.2017 18:00:00 (CET)List/Sylt, Duitsland (10020): temperatuur -20cm: 13.11.2017 18:00:00 - 19.11.2017 18:00:00 (CET)List/Sylt, Duitsland (10020): windsnelheid & windstoten: 13.11.2017 18:00:00 - 19.11.2017 18:00:00 (CET)List/Sylt, Duitsland (10020): windrichting: 13.11.2017 18:00:00 - 19.11.2017 18:00:00 (CET)List/Sylt, Duitsland (10020): luchtdruk: 13.11.2017 18:00:00 - 19.11.2017 18:00:00 (CET)List/Sylt, Duitsland (10020): zicht: 13.11.2017 18:00:00 - 19.11.2017 18:00:00 (CET)List/Sylt, Duitsland (10020): Zonneschijnduur: 13.11.2017 18:00:00 - 19.11.2017 18:00:00 (CET)List/Sylt, Duitsland (10020): neerslag: 13.11.2017 18:00:00 - 19.11.2017 18:00:00 (CET)
Datum & Tijd tt [°C] td [°C] tt 5cm [°C] tt -5cm [°C] tt -20cm [°C] ff [km/u] ff [kn] fx [km/u] fx [kn] dd ppp [hPa] vv [km] sd [min] rr [mm]
19.11.2017 18:00:00 5,5 0,9 4,7 6,1 6,8 23 12 43 23 N 1009,9 69 0 0,0
19.11.2017 17:00:00 6,4 1,5 4,7 6,3 6,9 34 19 56 30 NNW 1008,6 55 0 0,0
19.11.2017 16:00:00 7,3 3,4 5,9 6,5 6,9 40 22 63 34 NW 1007,7 31 11 0,0
19.11.2017 15:00:00 7,3 3,5 5,9 6,6 6,9 49 26 75 40 NW 1006,8 19 1 0,0
19.11.2017 14:00:00 8,3 3,9 7,5 6,6 6,8 54 29 84 45 NNW 1005,9 12 13 0,1
19.11.2017 13:00:00 6,6 4,1 5,7 6,6 6,8 39 21 54 29 NNW 1005,8 22 10 0,0
19.11.2017 12:00:00 7,0 4,5 6,0 6,5 6,8 36 19 68 37 NNW 1005,2 16 12 1,1
19.11.2017 11:00:00 6,4 3,7 5,4 6,4 6,8 51 28 77 41 NW 1004,8 10 4 0,5
19.11.2017 10:00:00 7,1 3,2 5,9 6,4 6,8 61 33 86 46 NW 1003,4 3,8 39 0,0
19.11.2017 09:00:00 8,6 3,7 7,5 6,4 6,8 59 32 79 43 NW 1002,3 17 0 0,0
19.11.2017 08:00:00 8,6 4,1 7,0 6,4 6,8 56 30 81 44 NW 1001,5 20 0 0,0
19.11.2017 07:00:00 8,4 4,9 7,0 6,4 6,7 55 30 86 46 NW 1001,2 15 0 0,1
19.11.2017 06:00:00 8,5 3,8 6,9 6,3 6,7 58 31 79 43 NW 1000,9 21 0 0,1
19.11.2017 05:00:00 7,9 4,7 6,4 6,3 6,7 49 26 79 43 WNW 1001,5 19 0 0,0
19.11.2017 04:00:00 8,0 3,8 6,6 6,2 6,7 63 34 86 46 WNW 1001,4 23 0 0,1
19.11.2017 03:00:00 7,8 4,5 6,2 6,2 6,8 48 26 80 43 WNW 1001,8 17 0 0,4
19.11.2017 02:00:00 8,0 2,6 6,2 6,2 6,8 53 29 76 41 WNW 1002,4 26 0 0,0
19.11.2017 01:00:00 7,1 2,4 5,0 6,2 6,8 58 31 82 45 WNW 1002,9 28 0 0,0
19.11.2017 00:00:00 7,0 3,0 5,0 6,2 6,8 45 24 94 51 WNW 1003,5 29 0 0,4
18.11.2017 23:00:00 7,8 4,2 6,2 6,3 6,9 53 28 74 40 WNW 1004,1 24 0 0,0
18.11.2017 22:00:00 8,1 4,0 6,2 6,3 6,9 46 25 70 38 WNW 1004,5 25 0 0,0
18.11.2017 21:00:00 7,1 3,6 5,2 6,3 6,9 44 24 84 45 W 1005,0 24 0 0,2
18.11.2017 20:00:00 5,6 2,7 4,2 6,3 6,9 42 23 62 33 NNW 1005,7 25 0 1,3
18.11.2017 19:00:00 7,6 3,3 6,7 6,4 7,0 41 22 68 37 WNW 1005,9 30 0 0,0
18.11.2017 18:00:00 7,6 2,8 5,7 6,3 7,0 45 25 69 37 WNW 1006,0 31 0 0,0
18.11.2017 17:00:00 6,3 2,5 4,7 6,4 7,1 45 24 71 39 WNW 1006,1 35 0 0,4
18.11.2017 16:00:00 7,0 3,3 5,6 6,6 7,1 46 25 68 37 NW 1006,4 20 5 0,0
18.11.2017 15:00:00 7,2 2,6 6,8 6,6 7,1 50 27 72 39 WNW 1006,4 15 45 0,0
18.11.2017 14:00:00 7,2 2,3 6,9 6,6 7,1 47 26 71 38 WNW 1006,3 7 35 0,1
18.11.2017 13:00:00 6,4 1,1 4,8 6,6 7,1 45 24 84 45 NW 1006,4 27 30 0,0
18.11.2017 12:00:00 7,3 2,2 7,4 6,5 7,1 44 24 63 34 WNW 1006,4 10 17 0,0
18.11.2017 11:00:00 5,5 2,4 4,7 6,6 7,1 52 28 69 37 NW 1006,4 18 0 0,0
18.11.2017 10:00:00 6,3 3,1 5,2 6,6 7,2 39 21 61 33 W 1006,4 42 0 0,0
18.11.2017 09:00:00 5,4 3,5 4,6 6,7 7,2 35 19 90 49 NW 1007,4 49 0 0,9
18.11.2017 08:00:00 8,1 4,8 6,6 6,8 7,2 45 25 77 41 WZW 1006,4 29 0 0,0
18.11.2017 07:00:00 8,5 4,9 6,8 6,8 7,2 48 26 72 39 W 1007,0 27 0 1,1
18.11.2017 06:00:00 8,2 5,6 7,0 6,8 7,2 42 23 74 40 WZW 1008,6 26 0 0,0
18.11.2017 05:00:00 7,7 5,4 6,2 6,8 7,2 39 21 71 39 WZW 1010,0 - 0 1,0
18.11.2017 04:00:00 7,7 5,5 6,2 6,8 7,2 43 23 64 34 W 1011,3 - 0 0,3
18.11.2017 03:00:00 7,6 4,1 6,0 6,8 7,2 48 26 70 38 W 1012,9 - 0 0,0
18.11.2017 02:00:00 8,6 3,4 6,9 6,7 7,2 41 22 69 38 WZW 1014,0 - 0 0,0
18.11.2017 01:00:00 8,2 4,7 6,0 6,7 7,3 39 21 57 31 WZW 1015,2 - 0 0,2
18.11.2017 00:00:00 7,9 4,7 5,9 6,8 7,3 38 21 63 34 WZW 1016,0 - 0 0,2
17.11.2017 23:00:00 8,8 3,7 7,8 6,8 7,3 39 21 61 33 WZW 1016,8 41 0 0,0
17.11.2017 22:00:00 8,7 3,7 7,2 6,8 7,3 37 20 53 29 WZW 1017,5 42 0 0,0
17.11.2017 21:00:00 8,5 4,4 7,0 6,8 7,4 36 19 56 30 WZW 1018,0 20 0 0,1
17.11.2017 20:00:00 8,3 4,2 6,2 6,9 7,4 27 15 55 30 W 1018,8 44 0 0,0
17.11.2017 19:00:00 7,7 3,9 5,4 6,9 7,5 26 14 49 26 WZW 1019,7 43 0 0,1
17.11.2017 18:00:00 8,0 4,1 6,7 7,0 7,5 25 14 49 27 WZW 1020,3 30 0 0,0
17.11.2017 17:00:00 8,6 3,0 7,1 7,2 7,5 29 16 47 25 W 1020,7 49 0 0,0
17.11.2017 16:00:00 8,9 2,8 7,7 7,3 7,5 27 14 38 20 W 1020,9 43 6 0,0
17.11.2017 15:00:00 8,6 2,8 7,7 7,4 7,5 29 15 42 23 WZW 1021,5 48 7 0,0
17.11.2017 14:00:00 9,3 4,0 10,0 7,5 7,4 24 13 46 25 W 1022,0 15 42 0,0
17.11.2017 13:00:00 9,2 4,1 10,3 7,3 7,3 24 13 45 25 WNW 1022,7 7 55 0,0
17.11.2017 12:00:00 8,7 4,3 8,3 7,0 7,3 22 12 39 21 WNW 1023,2 37 28 0,0
17.11.2017 11:00:00 8,4 3,4 7,3 6,9 7,3 27 15 43 23 W 1023,1 37 12 0,1
17.11.2017 10:00:00 8,4 4,4 7,6 6,7 7,3 19 10 39 21 W 1023,0 28 43 0,0
17.11.2017 09:00:00 6,9 4,2 5,7 6,7 7,3 21 11 40 21 WNW 1022,9 34 0 0,5
17.11.2017 08:00:00 7,9 2,9 6,7 6,7 7,4 26 14 43 23 WNW 1022,5 58 0 0,0
17.11.2017 07:00:00 8,0 3,9 6,7 6,6 7,5 23 12 39 21 WNW 1022,2 38 0 0,0
17.11.2017 06:00:00 7,8 2,7 5,9 6,7 7,5 24 13 40 22 WNW 1022,1 44 0 0,0
17.11.2017 05:00:00 7,9 2,0 5,9 6,8 7,6 27 14 45 25 WNW 1021,8 46 0 0,0
17.11.2017 04:00:00 8,1 2,0 5,7 7,0 7,7 31 17 40 22 NW 1021,4 44 0 0,0
17.11.2017 03:00:00 8,0 3,1 5,7 7,1 7,8 28 15 42 23 NW 1021,3 32 0 0,0
17.11.2017 02:00:00 7,8 3,7 5,8 7,2 7,9 29 16 49 27 NW 1020,8 29 0 0,0
17.11.2017 01:00:00 8,1 2,4 5,5 7,4 8,0 34 19 45 24 NW 1020,3 34 0 0,0
17.11.2017 00:00:00 7,2 3,7 5,7 7,6 8,1 35 19 56 30 WNW 1020,0 37 0 0,1
16.11.2017 23:00:00 8,3 3,9 6,3 7,8 8,1 41 22 53 29 NW 1019,0 29 0 0,0
16.11.2017 22:00:00 8,4 5,0 6,7 8,1 8,1 40 22 54 29 NW 1018,2 29 0 0,0
16.11.2017 21:00:00 8,7 7,3 7,9 8,3 8,1 29 16 49 26 NW 1017,3 25 0 1,1
16.11.2017 20:00:00 8,9 8,0 8,5 8,4 8,1 33 18 51 27 WNW 1016,4 3,9 0 0,8
16.11.2017 19:00:00 10,3 9,7 9,7 8,3 8,0 25 13 51 28 ZW 1015,5 6 0 0,1
16.11.2017 18:00:00 9,9 9,2 9,5 8,3 8,0 37 20 52 28 ZZW 1015,5 5 0 0,0
16.11.2017 17:00:00 10,0 9,1 9,2 8,3 7,9 41 22 50 27 ZZW 1016,0 8 0 0,0
16.11.2017 16:00:00 9,8 8,9 9,2 8,4 7,9 37 20 51 28 ZZW 1016,4 11 0 0,0
16.11.2017 15:00:00 9,9 9,0 9,5 8,4 7,7 38 20 49 27 ZZW 1017,0 8 0 0,0
16.11.2017 14:00:00 10,0 9,2 10,2 8,2 7,6 38 21 50 27 ZZW 1017,5 9 0 0,0
16.11.2017 13:00:00 9,8 9,4 9,8 7,9 7,5 31 17 43 23 ZZW 1018,1 9 0 0,0
16.11.2017 12:00:00 8,9 8,9 9,1 7,7 7,4 30 16 40 21 Z 1018,8 5 0 0,1
16.11.2017 11:00:00 8,6 8,6 8,8 7,5 7,4 29 16 37 20 Z 1019,1 1,3 0 0,0
16.11.2017 10:00:00 8,3 8,3 8,4 7,3 7,3 28 15 36 19 Z 1019,7 0,6 0 0,7
16.11.2017 09:00:00 8,3 8,3 8,2 7,2 7,3 26 14 31 17 Z 1020,0 0,3 0 0,0
16.11.2017 08:00:00 7,8 7,8 7,8 7,1 7,2 24 13 33 18 Z 1020,2 0,2 0 0,0
16.11.2017 07:00:00 7,6 7,6 7,6 7,1 7,2 24 13 36 20 ZZO 1020,2 0,2 0 0,0
16.11.2017 06:00:00 7,6 7,5 7,6 7,0 7,1 25 13 33 18 ZZO 1020,5 0,1 0 0,0
16.11.2017 05:00:00 7,2 7,0 7,2 6,8 7,1 20 11 28 15 ZZO 1021,2 0,1 0 0,0
16.11.2017 04:00:00 7,1 6,5 6,9 6,7 7,1 18 10 26 14 ZZO 1021,9 4,9 0 0,0
16.11.2017 03:00:00 7,2 6,5 6,8 6,6 7,0 15 8 25 13 ZO 1022,4 15 0 0,0
16.11.2017 02:00:00 7,5 6,5 6,9 6,5 7,1 18 10 23 13 ZZO 1022,9 30 0 0,0
16.11.2017 01:00:00 7,5 6,3 6,7 6,3 7,1 15 8 19 10 Z 1023,3 48 0 0,0
16.11.2017 00:00:00 7,1 6,5 5,2 6,3 7,2 11 6 14 8 Z 1023,9 24 0 0,0
15.11.2017 23:00:00 7,0 6,1 5,0 6,3 7,3 10 5 14 7 Z 1024,1 34 0 0,0
15.11.2017 22:00:00 6,8 6,1 4,7 6,4 7,4 11 6 15 8 Z 1024,2 20 0 0,0
15.11.2017 21:00:00 7,0 5,7 3,7 6,6 7,5 10 5 12 6 ZZW 1024,2 33 0 0,0
15.11.2017 20:00:00 7,4 6,0 4,0 6,8 7,6 10 5 12 6 ZW 1024,2 49 0 0,0
15.11.2017 19:00:00 8,1 6,5 5,5 7,0 7,7 10 5 10 5 WNW 1024,3 35 0 0,0
15.11.2017 18:00:00 8,1 6,4 4,7 7,3 7,7 8 4 11 6 W 1023,8 36 0 0,0
15.11.2017 17:00:00 8,1 6,7 5,6 7,6 7,8 11 6 13 7 WNW 1023,8 34 0 0,0
15.11.2017 16:00:00 8,9 6,4 6,9 7,9 7,7 12 7 15 8 WNW 1023,6 31 29 0,0
15.11.2017 15:00:00 9,6 6,7 8,6 8,2 7,6 12 7 19 10 WNW 1023,2 48 28 0,0
15.11.2017 14:00:00 10,2 6,1 10,0 8,1 7,5 14 8 27 15 WNW 1022,9 40 10 0,0
15.11.2017 13:00:00 11,3 7,0 13,5 7,9 7,3 19 10 28 15 NW 1022,6 11 56 0,0
15.11.2017 12:00:00 10,9 7,4 11,8 7,5 7,2 20 11 29 16 NW 1022,2 12 60 0,0
15.11.2017 11:00:00 10,6 8,0 11,1 7,2 7,1 22 12 29 16 WNW 1021,8 19 60 0,0
15.11.2017 10:00:00 9,8 8,5 9,5 7,0 7,1 14 7 24 13 WZW 1021,5 39 39 0,0
15.11.2017 09:00:00 9,3 8,0 8,8 6,8 7,1 18 10 23 13 WZW 1021,1 70 6 0,0
15.11.2017 08:00:00 8,6 8,0 7,6 6,8 7,1 11 6 17 9 ZW 1020,5 34 0 0,0
15.11.2017 07:00:00 9,0 8,2 7,8 6,8 7,0 11 6 19 10 ZW 1020,1 24 0 0,0
15.11.2017 06:00:00 9,4 7,3 8,1 6,8 7,0 15 8 20 11 WZW 1019,9 47 0 0,0
15.11.2017 05:00:00 9,4 8,2 8,3 6,7 7,0 14 8 20 11 WZW 1019,7 30 0 0,0
15.11.2017 04:00:00 9,0 8,2 8,2 6,5 7,0 13 7 20 11 WZW 1019,9 29 0 0,0
15.11.2017 03:00:00 8,3 7,5 7,1 6,4 7,0 15 8 21 12 WZW 1020,0 33 0 0,0
15.11.2017 02:00:00 8,4 6,9 6,3 6,5 7,0 14 8 19 10 WZW 1019,8 35 0 0,0
15.11.2017 01:00:00 8,8 6,4 6,8 6,6 7,1 16 9 22 12 WZW 1020,0 21 0 0,0
15.11.2017 00:00:00 8,7 6,4 6,9 6,6 7,1 15 8 21 11 WZW 1019,9 32 0 0,0
14.11.2017 23:00:00 8,7 6,2 6,7 6,6 7,1 15 8 23 13 W 1019,5 42 0 0,0
14.11.2017 22:00:00 8,7 6,4 6,7 6,8 7,2 17 9 26 14 W 1019,6 31 0 0,0
14.11.2017 21:00:00 8,9 6,6 6,7 6,9 7,2 18 10 26 14 W 1019,0 28 0 0,0
14.11.2017 20:00:00 8,7 6,6 6,7 7,0 7,2 18 10 27 14 WNW 1018,8 25 0 0,0
14.11.2017 19:00:00 9,1 6,7 7,7 7,1 7,2 22 12 37 20 WNW 1018,1 29 0 0,0
14.11.2017 18:00:00 9,0 6,6 7,7 7,2 7,2 22 12 31 17 WNW 1017,5 24 0 0,0
14.11.2017 17:00:00 9,1 6,7 7,4 7,3 7,1 22 12 35 19 WNW 1017,0 23 0 0,0
14.11.2017 16:00:00 9,8 6,6 8,4 7,4 7,1 29 16 39 21 WNW 1016,2 13 57 0,0
14.11.2017 15:00:00 10,3 7,2 9,4 7,5 6,9 32 17 42 23 NW 1015,3 6 53 0,0
14.11.2017 14:00:00 10,5 8,2 10,5 7,4 6,7 32 17 42 23 WNW 1014,7 14 51 0,0
14.11.2017 13:00:00 10,2 8,6 10,3 7,1 6,6 27 15 51 28 WNW 1014,0 23 6 0,1
14.11.2017 12:00:00 10,2 9,6 10,1 6,7 6,4 32 17 49 26 W 1013,4 12 0 0,1
14.11.2017 11:00:00 9,4 9,0 9,2 6,3 6,3 32 17 58 32 WZW 1013,4 7 0 0,3
14.11.2017 10:00:00 8,4 7,4 7,8 6,1 6,2 37 20 63 34 ZW 1013,7 9 0 0,2
14.11.2017 09:00:00 8,2 5,1 6,7 5,9 6,2 42 23 61 33 WZW 1014,1 26 0 0,1
14.11.2017 08:00:00 7,0 4,3 5,7 5,8 6,1 29 16 52 28 ZW 1014,6 49 0 0,1
14.11.2017 07:00:00 7,1 5,3 6,2 5,6 6,1 39 21 57 31 WZW 1015,3 7 0 0,7
14.11.2017 06:00:00 7,2 5,2 6,2 5,5 6,0 26 14 41 22 ZW 1015,6 3,7 0 0,0
14.11.2017 05:00:00 7,8 3,5 6,6 5,3 6,0 21 11 35 19 WZW 1015,9 70 0 0,0
14.11.2017 04:00:00 7,2 2,8 6,0 5,2 6,0 17 9 28 15 WZW 1016,8 60 0 0,0
14.11.2017 03:00:00 7,2 2,2 5,0 5,1 6,1 17 9 24 13 W 1017,3 67 0 0,0
14.11.2017 02:00:00 7,0 2,3 5,3 5,1 6,1 17 9 26 14 WZW 1017,8 70 0 0,0
14.11.2017 01:00:00 6,3 2,4 2,2 5,2 6,2 4 2 23 12 NW 1017,9 70 0 0,0
14.11.2017 00:00:00 6,1 2,2 5,0 5,2 6,2 19 10 31 17 W 1018,1 70 0 0,0
13.11.2017 23:00:00 5,0 1,3 2,7 5,2 6,3 14 7 36 19 NNW 1018,1 70 0 0,0
13.11.2017 22:00:00 5,5 2,5 0,4 5,3 6,4 5 3 10 5 W 1018,3 56 0 0,0
13.11.2017 21:00:00 5,4 2,5 1,2 5,6 6,4 6 4 32 18 NNW 1018,1 56 0 0,0
13.11.2017 20:00:00 5,6 2,8 4,6 5,7 6,4 33 18 46 25 NNW 1017,8 65 0 0,1
13.11.2017 19:00:00 6,2 2,2 4,3 5,8 6,4 19 10 27 14 NNW 1017,6 59 0 0,0
13.11.2017 18:00:00 7,1 3,1 5,0 5,9 6,5 13 7 22 12 W 1017,2 70 0 0,0

tt = temperatuur
td = dauwpunt
tt 5cm = temperatuur 5cm
tt -5cm = temperatuur -5cm
tt -20cm = temperatuur -20cm
ff = windsnelheid
fx = windstoten
dd = windrichting
ppp = luchtdruk
vv = zicht
sd = Zonneschijnduur
rr = neerslag

Weerstations in de omgeving